DW8492 Weather Reports


time (UTC)temp
C
wind
direction
speed
KPH
gust
KPH
rain 1hr
cm
rain 24hr
cm
rain mn
cm
humidity
%
barometer
mb
20260902231507 31 209 1.6 4.8 0.00 0.00 0.00 63 1012.7
20260902230150 31 234 1.6 6.4 0.00 0.00 0.00 60 1012.6
20260902224523 31 179 3.2 11.3 0.00 0.00 0.00 59 1012.8
20260902223114 32 148 3.2 8.0 0.00 0.00 0.00 59 1012.8
20260902221532 32 244 3.2 8.0 0.00 0.00 0.00 58 1012.6
20260902220104 32 236 1.6 6.4 0.00 0.00 0.00 57 1012.6
20260902214524 33 221 3.2 11.3 0.00 0.00 0.00 53 1013.0
20260902213105 33 244 3.2 6.4 0.00 0.00 0.00 55 1013.0
20260902211523 33 253 3.2 8.0 0.00 0.00 0.00 54 1012.8
20260902210106 33 233 1.6 6.4 0.00 0.00 0.00 56 1012.7
20260902204537 33 217 3.2 8.0 0.00 0.00 0.00 53 1013.0
20260902203114 33 180 3.2 9.7 0.00 0.00 0.00 54 1013.2
20260902201537 34 159 1.6 6.4 0.00 0.00 0.00 56 1013.3
20260902200004 33 202 3.2 12.9 0.00 0.00 0.00 55 1013.3
20260902194549 33 202 0.0 8.0 0.00 0.00 0.00 58 1013.4
20260902193002 33 90 3.2 9.7 0.00 0.00 0.00 55 1013.6
20260902191534 33 231 1.6 11.3 0.00 0.00 0.00 58 1013.7
20260902190108 33 207 1.6 9.7 0.00 0.00 0.00 61 1013.9
20260902184536 32 207 1.6 6.4 0.00 0.00 0.00 61 1014.2
20260902183113 33 182 1.6 8.0 0.00 0.00 0.00 60 1014.3
20260902181542 33 176 1.6 6.4 0.00 0.00 0.00 62 1014.5
20260902180111 33 202 3.2 8.0 0.00 0.00 0.00 61 1014.6
20260902174537 32 191 1.6 6.4 0.00 0.00 0.00 64 1014.7
20260902173120 31 210 1.6 8.0 0.00 0.00 0.00 66 1014.8
20260902171539 31 238 0.0 4.8 0.00 0.00 0.00 67 1014.9
20260902170010 31 203 1.6 6.4 0.00 0.00 0.00 68 1014.9
20260902164536 31 197 3.2 11.3 0.00 0.00 0.00 69 1015.1
20260902163106 30 209 1.6 6.4 0.00 0.00 0.00 71 1015.2
20260902161526 31 5 1.6 4.8 0.00 0.00 0.00 71 1015.2
20260902160100 31 237 0.0 6.4 0.00 0.00 0.00 72 1015.4
20260902154528 30 189 0.0 8.0 0.00 0.00 0.00 72 1015.4
20260902153112 30 219 3.2 8.0 0.00 0.00 0.00 73 1015.6
20260902151545 29 209 1.6 6.4 0.00 0.00 0.00 76 1015.7
20260902150013 28 239 0.0 4.8 0.00 0.00 0.00 79 1015.7
20260902144533 27 238 1.6 3.2 0.00 0.00 0.00 80 1015.8
20260902141537 26 239 1.6 4.8 0.00 0.00 0.00 87 1015.7
20260902140013 25 229 1.6 6.4 0.00 0.00 0.00 88 1015.6
20260902134553 25 246 1.6 6.4 0.00 0.00 0.00 91 1015.5
20260902133013 23 271 1.6 4.8 0.00 0.00 0.00 94 1015.5
20260902131546 23 231 1.6 8.0 0.00 0.00 0.00 95 1015.4
20260902130013 23 248 1.6 4.8 0.00 0.00 0.00 96 1015.5
20260902124521 22 248 1.6 8.0 0.00 0.00 0.00 97 1015.5
20260902123056 22 238 0.0 3.2 0.00 0.00 0.00 97 1015.5
20260902121515 22 237 0.0 0.0 0.00 0.00 0.00 97 1015.5
20260902120054 21 237 0.0 0.0 0.00 0.00 0.00 97 1015.5
20260902114514 22 237 0.0 0.0 0.00 0.00 0.00 97 1015.2
20260902113054 21 237 0.0 4.8 0.00 0.00 0.00 97 1014.8
20260902111604 21 239 0.0 0.0 0.00 0.00 0.00 97 1014.9
20260902110038 21 239 0.0 0.0 0.00 0.00 0.00 97 1015.0
20260902104619 21 239 0.0 0.0 0.00 0.00 0.00 96 1014.8
20260902103026 21 239 0.0 0.0 0.00 0.00 0.00 97 1014.7
20260902101603 21 240 0.0 4.8 0.00 0.00 0.00 97 1014.7
20260902100016 21 228 0.0 0.0 0.00 0.00 0.00 96 1014.7
20260902094552 21 226 0.0 0.0 0.00 0.00 0.00 96 1014.9
20260902093045 20 226 0.0 0.0 0.00 0.00 0.00 97 1014.8
20260902091508 20 226 0.0 0.0 0.00 0.00 0.00 96 1015.0
20260902090052 20 226 0.0 0.0 0.00 0.00 0.00 96 1015.0
20260902084521 20 226 0.0 0.0 0.00 0.00 0.00 96 1014.9
20260902083054 20 226 0.0 0.0 0.00 0.00 0.00 95 1014.8
20260902081514 20 226 0.0 0.0 0.00 0.00 0.00 95 1014.9
20260902080054 20 226 0.0 0.0 0.00 0.00 0.00 95 1015.0
20260902074525 20 226 0.0 0.0 0.00 0.00 0.00 95 1015.1
20260902073108 20 226 0.0 0.0 0.00 0.00 0.00 95 1015.0
20260902071525 20 226 0.0 0.0 0.00 0.00 0.00 94 1015.0
20260902070058 20 226 0.0 0.0 0.00 0.00 0.00 94 1015.1
20260902064527 21 226 0.0 0.0 0.00 0.00 0.00 94 1015.0
20260902063110 21 226 0.0 0.0 0.00 0.00 0.00 93 1015.1
20260902061528 21 226 0.0 0.0 0.00 0.00 0.00 93 1015.1
20260902060109 21 226 0.0 0.0 0.00 0.00 0.00 92 1014.9
20260902054534 21 226 0.0 0.0 0.00 0.00 0.00 91 1014.9
20260902053107 22 226 0.0 0.0 0.00 0.00 0.00 91 1014.9
20260902051531 22 226 0.0 0.0 0.00 0.00 0.00 90 1014.8
20260902050111 22 226 0.0 0.0 0.00 0.00 0.00 89 1014.7
20260902044558 22 226 0.0 0.0 0.00 0.00 0.00 88 1014.6
20260902043100 23 226 0.0 1.6 0.00 0.00 0.00 88 1014.6
20260902041534 23 225 0.0 0.0 0.00 0.00 0.00 88 1014.6
20260902040058 23 225 0.0 0.0 0.00 0.00 0.00 87 1014.5
20260902034605 23 225 0.0 0.0 0.00 0.00 0.00 87 1014.5
20260902033006 23 223 0.0 4.8 0.00 0.00 0.00 86 1014.5
20260902031557 23 254 0.0 6.4 0.00 0.00 0.00 86 1014.3
20260902030016 23 257 0.0 3.2 0.00 0.00 0.00 85 1014.4
20260902024552 24 157 0.0 1.6 0.00 0.00 0.00 84 1014.6
20260902023020 24 157 0.0 1.6 0.00 0.00 0.00 84 1014.5
20260902021524 25 157 0.0 0.0 0.00 0.00 0.00 82 1014.3
20260902020108 25 157 0.0 4.8 0.00 0.00 0.00 82 1014.3
20260902014514 25 156 0.0 3.2 0.00 0.00 0.00 81 1014.3
20260902013051 25 186 0.0 0.0 0.00 0.00 0.00 80 1014.0
20260902011527 25 186 0.0 0.0 0.00 0.00 0.00 79 1014.0
20260902004537 26 186 1.6 9.7 0.00 0.00 0.00 76 1013.7
20260902003002 26 244 0.0 0.0 0.00 0.00 0.00 77 1013.7
20260902001540 27 244 0.0 3.2 0.00 0.00 0.00 75 1013.6
20260902000021 27 245 1.6 9.7 0.00 0.00 0.00 73 1013.9
20260901234602 27 224 1.6 4.8 0.00 0.00 0.00 73 1013.9
20260901233013 28 191 0.0 6.4 0.00 0.00 0.00 72 1014.0